Flag for Germany Weather past 2 weeks in Sinsheim, Baden-Württemberg, Germany

Now
59 °F

Sunny.


Feels Like: 59 °F
Forecast: 52 / 75 °F
Wind: 2 mph from North

Location: Baden Wurttemberg - Neuostheim

Current Time: Sep 16, 2014 at 9:40:16 AM

Latest Report: Sep 16, 2014 at 8:50 AM


Visibility: 10 mi

Pressure: 30.01 "Hg

Humidity: 94%

Dew point: 57 °F

Location of SinsheimLocation

Historic Weather in Sinsheim — Graph

°F

Sinsheim temperature yesterday

Maximum temperature yesterday: 70 °F (at 2:20 PM)
Minimum temperature yesterday: 54 °F (at 5:20 AM)
Average temperature yesterday: 64 °F

Past Weeks' High & Low Weather Summary

 TemperatureHumidityPressure
High82 °F (Sep 6, 5:20 PM)100% (Sep 5, 6:20 AM)30.18 "Hg (Sep 5, 6:20 AM)
Low50 °F (Sep 11, 5:20 AM)37% (Sep 6, 5:20 PM)29.86 "Hg (Sep 6, 4:20 PM)
Average64 °F74%30.05 "Hg
* Reported Sep 1 8:20 AM — Sep 16 8:20 AM, Sinsheim, Weather by CustomWeather, © 2014

Note: Actual official high and low records may vary slightly from our data, if they occured in-between our weather recording intervals... More about our weather records

Advertising

Sinsheim weather history for previous 24 hours

 ConditionsComfort  
Time TempWeatherWind HumidityBarometerVisibility
8:20 AM
Sep 16
57 °FCool.No wind94%29.98 "HgN/A
7:50 AM55 °FClear.2 mph100%29.98 "Hg10 mi
7:20 AM52 °FClear.2 mph100%29.98 "Hg10 mi
6:50 AM54 °FClear.1 mph94%29.98 "Hg10 mi
6:20 AM54 °FClear.No wind94%29.98 "Hg5 mi
5:20 AM52 °FClear.No wind100%29.98 "Hg5 mi
4:50 AM52 °FClear.1 mph100%29.98 "Hg10 mi
8:50 PM
Sep 15
64 °FClear.1 mph78%29.98 "Hg10 mi
8:20 PM66 °FSunny.3 mph73%29.98 "Hg10 mi
7:50 PM68 °FSunny.1 mph69%29.98 "Hg10 mi
7:20 PM68 °FPartly sunny.3 mph69%29.98 "HgN/A
6:50 PM68 °FPartly sunny.5 mph69%29.98 "HgN/A
6:20 PM70 °FPartly sunny.3 mph64%29.98 "HgN/A
5:50 PM70 °FPartly sunny.6 mph64%29.98 "HgN/A
5:20 PM70 °FPartly sunny.6 mph64%29.98 "HgN/A
4:50 PM70 °FOvercast.6 mph64%29.98 "HgN/A
4:20 PM70 °FOvercast.5 mph64%29.98 "HgN/A
3:50 PM70 °FOvercast.6 mph64%30.01 "HgN/A
3:20 PM70 °FOvercast.7 mph64%30.01 "HgN/A
2:50 PM70 °FMore clouds than sun.3 mph64%30.01 "HgN/A
2:20 PM70 °FPartly sunny.5 mph64%30.01 "HgN/A
1:50 PM68 °FCloudy.5 mph69%30.01 "HgN/A
1:20 PM68 °FOvercast.5 mph69%30.01 "HgN/A
12:50 PM68 °FCloudy.5 mph69%30.01 "HgN/A
12:20 PM68 °FMore clouds than sun.6 mph69%30.01 "HgN/A
11:50 AM68 °FCloudy.3 mph69%30.04 "HgN/A
11:20 AM66 °FMostly cloudy.3 mph73%30.04 "HgN/A
10:50 AM66 °FBroken clouds.3 mph73%30.04 "HgN/A
10:20 AM64 °FScattered clouds.3 mph78%30.04 "HgN/A
9:50 AM64 °FPassing clouds.3 mph83%30.04 "HgN/A
9:20 AM61 °FPartly sunny.2 mph94%30.04 "HgN/A
Weather by CustomWeather, © 2014

See weather overviewHow to use our weather pages